{"data":{"norad_id":65559,"epoch":"2026-05-24T10:40:36.963264Z","epoch_age_seconds":133273,"freshness":"FRESH","line1":"1 65559U 25201K   26144.44487226  .00001054  00000+0  15196-3 0  9998","line2":"2 65559  49.9813 148.9580 0007567 197.1298 162.9385 14.84087303 38275","mean_motion":14.84087303,"eccentricity":0.0007567,"inclination_deg":49.9813,"raan_deg":148.958,"arg_perigee_deg":197.1298,"mean_anomaly_deg":162.9385,"bstar":0.00015196,"rev_number":3827,"period_min":97.029332242727,"perigee_km":611.15931914874,"apogee_km":621.74493033012,"semimajor_km":6994.5891247394,"source":"CELESTRAK","updated_at":"2026-05-25T13:38:05.516743Z"}}